Regional Weather Roundup
Issued by NWS

Home | Current Version | Previous Version | Text Only | Print | Product List | Glossary On
Versions: 1 2 3 4 5 6 7 8 9 10 11 12 13 14 15 16 17 18 19 20 21 22 23 24 25 26 27 28 29 30 31 32 33 34 35 36 37 38 39 40 41 42 43 44 45 46 47 48 49 50
000
ASUS43 KDTX 252110
RWRMI
MICHIGAN HOURLY REGIONAL WEATHER ROUNDUP
NATIONAL WEATHER SERVICE DETROIT/PONTIAC MI
400 PM EST TUE NOV 25 2014

NOTE: "FAIR" INDICATES FEW OR NO CLOUDS BELOW 12,000 FEET WITH NO
SIGNIFICANT WEATHER AND/OR OBSTRUCTION TO VISIBILITY.

MIZ047>049-052>055-059>063-066>070-074>076-081>083-252200-
SOUTHEAST LOWER MICHIGAN

CITY           SKY/WX    TMP DP  RH WIND       PRES   REMARKS
ADRIAN         CLOUDY    29  21  72 W13       30.11R WCI  19
ALMA           CLOUDY    31  22  69 W10G17    30.04R WCI  23
ANN ARBOR      CLOUDY    30  21  69 W13       30.08R WCI  20
BAD AXE        CLOUDY    32  28  85 W10G16    30.00R WCI  23
CARO           CLOUDY    32  23  69 W10       30.02R WCI  24
DETROIT CITY   CLOUDY    34  22  61 W13G18    30.09R WCI  25
DETROIT        CLOUDY    31  22  69 SW12      30.10R WCI  22
FLINT          CLOUDY    33  24  69 W12G22    30.05R WCI  24
GROSSE ILE     CLOUDY    30  23  74 W12       30.09R WCI  21
HILLSDALE      CLOUDY    28  23  81 W10       30.09R WCI  18
HOWELL         CLOUDY    29  25  85 SW8       30.06R WCI  21

CITY           SKY/WX    TMP DP  RH WIND       PRES   REMARKS
JACKSON        CLOUDY    28  22  78 SW12      30.08  WCI  18
LAMBERTVILLE   CLOUDY    32  23  69 W8        30.12R WCI  25
LANSING        FLURRIES  30  21  69 W14       30.07R WCI  19
LAPEER         CLOUDY    32  25  75 W14G20    30.04R WCI  22
MASON          CLOUDY    31  24  75 W10       30.07R WCI  22
MONROE         CLOUDY    30  25  80 W12       30.10R WCI  21
MT. CLEMENS    CLOUDY    33  23  68 SW12      30.05R WCI  24
PONTIAC        FLURRIES  30  22  72 SW13      30.04R WCI  20
PORT HOPE        N/A     34  24  67 W9G18     29.97R WCI  27
PORT HURON     CLOUDY    32  23  69 SW6G17    30.05R WCI  26
TRI CITIES     CLOUDY    34  23  64 W14       30.03R WCI  25
TROY           CLOUDY    33  23  65 W7        30.08R WCI  27
SAGINAW HB     CLOUDY    32  27  80 W12G22    30.03R WCI  23
$$
MIZ043>046-050>051-056>058-064>065-071>073-077>080-252200-
SOUTHWEST LOWER MICHIGAN

CITY           SKY/WX    TMP DP  RH WIND       PRES   REMARKS
BATTLE CREEK   CLOUDY    30  20  66 W13       30.09R WCI  20
BENTON HARBOR  CLOUDY    28  20  71 W13       30.12R WCI  17
BIG RAPIDS     CLOUDY    29  25  84 W9        30.02R WCI  20
COLDWATER      CLOUDY    29  23  79 W10       30.10R WCI  19
FREMONT        CLOUDY    29  23  80 W6        30.06R WCI  22
HOLLAND        CLOUDY    31  22  69 W13       30.10R WCI  21
GRAND RAPIDS   CLOUDY    30  22  72 W14       30.07R WCI  19
IONIA          CLOUDY    31  23  71 W12G17    30.06R WCI  22
KALAMAZOO      CLOUDY    29  21  72 W13       30.10R WCI  19
LUDINGTON      CLOUDY    29  24  79 W5        30.06R WCI  24
MARSHALL       CLOUDY    27  23  83 SW9       30.09R WCI  18
MOUNT PLEASANT CLOUDY    32  24  73 W10G16    30.02R WCI  23
MUSKEGON       CLOUDY    31  20  63 W9        30.09R WCI  23
SOUTH HAVEN    CLOUDY    31  22  72 W9        30.11R WCI  22
$$
MIZ016>042-252200-
NORTHERN LOWER MICHIGAN

CITY           SKY/WX    TMP DP  RH WIND       PRES   REMARKS
ALPENA         MOCLDY    29  24  82 W5        29.96R WCI  24
BEAVER ISLAND  CLOUDY    30  23  75 W10       29.98R WCI  21
BELLAIRE       CLOUDY    31  24  76 W5        30.00R WCI  26
CADILLAC       CLOUDY    27  21  79 W7        29.97R WCI  19
CHARLEVOIX     CLOUDY    29  23  77 W16       30.00R WCI  18
FRANKFORT      CLOUDY    28  23  79 W9        30.03R WCI  20
GAYLORD        CLOUDY    27  21  78 W8        29.94R WCI  19
GRAYLING       LGT SNOW  28  24  86 W8G18     29.97R WCI  20
HARBOR SPRINGS CLOUDY    29  23  78 W9        29.97R WCI  20
HOUGHTON LAKE  FLURRIES  28  22  78 W13       29.98R WCI  17
MANISTEE       CLOUDY    28  21  74 W8        30.04R WCI  20
OSCODA         MOCLDY    31  29  92 W6        29.98R WCI  25
PELLSTON       CLOUDY    28  22  78 NW13G21   29.97R WCI  17
ROGERS CITY    MOCLDY    28  26  91 W7        29.97R WCI  21
TRAVERSE CITY  FLURRIES  30  22  72 W9        30.01R WCI  22
$$
MIZ007>008-015-252200-
EASTERN UPPER MICHIGAN

CITY           SKY/WX    TMP DP  RH WIND       PRES   REMARKS
KINROSS        CLOUDY    27  25  93 W8        29.93R WCI  18
MACKINAC ISLAN MOCLDY    28  26  91 W8        29.95R WCI  20
NEWBERRY       CLOUDY    25  21  84 W10       29.96R WCI  15
S. S. MARIE    LGT SNOW  26  22  84 VRB3      29.91F FOG
MUNISING         N/A     28  17  63 NW10G16   29.99R WCI  19
$$
MIZ004>006-011>014-085-252200-
CENTRAL UPPER MICHIGAN

CITY           SKY/WX    TMP DP  RH WIND       PRES   REMARKS
MANISTIQUE     MOCLDY    27  20  73 W8        29.99R WCI  19
ESCANABA       MOCLDY    25  12  58 NW7       30.01R WCI  17
MENOMINEE      CLOUDY    27  14  59 NW5       30.02R WCI  21
SAWYER-GWINN   MOCLDY    23  14  68 NW8       29.96R WCI  14
$$
MIZ001>003-009>011-084-252200-
WESTERN UPPER MICHIGAN

CITY           SKY/WX    TMP DP  RH WIND       PRES   REMARKS
IRON MOUNTAIN  MOCLDY    24  11  57 W9        29.97R WCI  14
HOUGHTON       MOCLDY    19   9  65 W10       29.95R WCI   7
COPPER HARBOR    N/A     22  12  65 VRB7      29.98R WCI  13
IRONWOOD       CLEAR     19  12  73 SW8       29.95R WCI   9
$$

ABBREVIATIONS USED IN REMARKS
   TC - TEMPERATURE IN CELSIUS
  WCI - WIND CHILL INDEX
   HX - HEAT INDEX
  VSB - VISIBILITY



USA.gov is the U.S. government's official web portal to all federal, state and local government web resources and services.